www.pogodaiklimat.ru

Погода и климат >> Архив погоды >> Россия >> Якутия >> Оймякон


АРХИВ ПОГОДЫ в Оймяконе

Время (UTC), дата Ветер
(напр.,м/с)
 
Видим.   Явления Облачность Т
(С)
Тd
(С)
f
(%)
Тe
(С)
Тes
(С)
Комфортность P
(гПа)
Po
(гПа)
Тmin
(С)
Tmax
(С)
R
(мм)
R24
(мм)
S
(см)
12 11.06 Ю 1 50 км {ливн. осадки} 6/4 1000 м
[Cb cap Ci fib]
+8.0 +5.3 83 +7 +7 прохладно 1010.2 924.1
15 11.06 ЮЗ 1 50 км 4/3 1000 м
[Sc Ci fib]
+1.8 +1.0 94 -0 -0 холодно 1012.8 924.5
18 11.06 СВ 2 50 км местами туман поземный 5/3 1000 м
[Sc Ci fib]
+3.4 +2.4 93 0 +1 прохладно 1013.1 925.3
21 11.06 В 2 50 км 5/3 1000 м
[Sc Ci fib]
+10.9 +5.0 67 +10 +12 по сезону 1011.1 925.7 -0.3
00 12.06 Ю 2 50 км 4/4 1000 м
[Cb calv Ac cast]
+15.4 +5.3 51 +15 +22 по сезону 1008.7 924.8
03 12.06 СЗ 2 50 км гроза без осадков {ливн. осадки} 9/9 1000 м
[Cb cap]
+17.1 +1.1 34 +17 +19 тепло 1006.4 923.1
06 12.06 Ю 2 50 км {гроза, ливн. осадки} 8/6 1000 м
[Cb cap Ac cuf Ci ing]
+17.7 +1.1 33 +18 +21 по сезону 1005.7 922.6
09 12.06 СЗ 1
{10}
50 км 10/5 1000 м
[Cb cap Ci fib]
+14.4 +5.3 54 +15 +16 по сезону 1007.7 923.6 +18.6 0.0
12 12.06 СВ 1 50 км 8/1 1000 м
[Sc Ci fib]
+10.0 +5.5 74 +10 +10 по сезону 1009.3 923.8
15 12.06 СВ 1 50 км местами туман поземный 3/1 1000 м
[Sc Ci fib]
+3.3 +2.8 97 +2 +2 холодно 1011.7 924.0
18 12.06 СВ 2 50 км 3/1 1000 м
[Sc Ci fib]
+3.8 +3.1 95 +1 +1 по сезону 1012.9 925.2
21 12.06 ЮВ 2 50 км 4/3 1000 м
[Sc Ac trans Cc]
+10.5 +3.8 63 +9 +12 по сезону 1010.7 925.3 +0.6
00 13.06 СВ 2 50 км 8/3 1000 м
[Cb cap Ac trans]
+13.3 +5.1 58 +13 +17 по сезону 1009.4 924.9
03 13.06 СВ 2 50 км 6/6 1000 м
[Cb cap]
+18.2 +6.1 45 +19 +24 тепло 1006.7 923.8
06 13.06 Ю 6 50 км осадки на расстоянии 4/3 1000 м
[Cb cap Ac trans]
+18.6 +4.1 38 +18 +20 по сезону 1006.1 923.2
09 13.06 ЮЗ 3 50 км {ливн. осадки} 3/3 1500 м
[Sc diur, vesp]
+15.9 +4.3 46 +16 +17 тепло 1007.8 924.1 +19.5 1
12 13.06 З 1 50 км 3/3 1500 м
[Sc diur, vesp]
+11.4 +5.6 67 +11 +11 по сезону 1009.8 924.7
15 13.06 Ю 1 50 км 6/6 1000 м
[Sc]
+7.3 +5.5 88 +6 +6 по сезону 1012.0 925.5
18 13.06 штиль 0 50 км 6/5 1000 м
[Sc Ci fib]
+4.0 +3.0 93 +3 +3 по сезону 1014.3 926.6
21 13.06 В 1 50 км 8/3 1000 м
[Sc Ac trans Ci fib]
+11.9 +5.1 63 +12 +14 тепло 1012.3 927.1 +2.8
00 14.06 СВ 1 50 км 8/3 1000 м
[Cu Sc Ac trans Cc]
+15.7 +7.3 57 +16 +22 по сезону 1010.4 926.5
03 14.06 СВ 5-10
{10}
50 км гроза без осадков 9/8 1000 м
[Cb cap Ci fib]
+17.9 +7.0 49 +18 +19 тепло 1009.1 925.8
06 14.06 З 3
{13}
50 км {гроза, ливн. осадки} 8/5 1000 м
[Cb cap Ci]
+17.0 +7.3 53 +17 +20 по сезону 1008.4 924.9
09 14.06 З 5 50 км гроза без осадков 9/8 1000 м
[Cb cap Ci]
+15.4 +6.8 56 +14 +14 по сезону 1009.2 925.3 +19.2 0.4
12 14.06 СВ 2 50 км в посл. час ливневой дождь {гроза} 10/3 200 м
[Cb cap As trans Ci ing]
+9.5 +9.0 97 +8 +8 прохладно 1012.7 926.9
15 14.06 В 1 20 км туман местами {ливн. осадки} 10/6 1000 м
[Sc Ac trans Ci fib]
+8.5 +7.8 95 +8 +8 по сезону 1013.7 927.5
18 14.06 СВ 2 500 м туман {ливн. осадки} ?/? +9.1 +8.9 99 +7 +7 тепло 1013.8 927.8
21 14.06 В 1 50 км {ливн. осадки, туман} 10/9 200 м
[St Ac trans]
+10.5 +9.7 95 +10 +10 по сезону 1014.2 928.5 +8.0 5
00 15.06 ЮВ 1 50 км {ливн. осадки, туман} 10/8 1000 м
[Cb cap Cc]
+14.2 +8.9 70 +15 +17 по сезону 1013.9 928.5
03 15.06 С 1 50 км 9/9 1000 м
[Cb cap]
+16.9 +8.5 58 +18 +19 тепло 1011.1 927.4
06 15.06 ЮЗ 3 50 км {гроза, ливн. осадки} 6/6 1000 м
[Cb cap]
+18.5 +5.1 41 +19 +22 по сезону 1009.8 926.6
09 15.06 Ю 2 50 км осадки на расстоянии 8/6 1000 м
[Cb cap Ci fib]
+16.9 +3.2 40 +17 +18 тепло 1010.8 927.1 +19.1 0.0
12 15.06 СВ 3 50 км 6/3 1000 м
[Cb cap Ci fib]
+9.7 +3.4 65 +8 +8 прохладно 1014.9 928.8
15 15.06 ЮЗ 2 50 км 3/1 1000 м
[Sc diur, vesp Ci fib]
+2.5 +2.0 96 -1 -1 очень
холодно
1018.3 929.8
18 15.06 З 1 50 км местами туман поземный 1/1 1000 м
[Sc]
+0.5 -0.1 96 -2 -1 холодно 1020.1 930.7
21 15.06 В 1 50 км 3/1 1000 м
[Sc Ci fib]
+9.6 +3.4 65 +9 +13 по сезону 1017.6 931.3 -0.4
00 16.06 В 2 50 км 3/1 1000 м
[Cu med, cong Ci fib]
+15.8 +5.3 50 +16 +25 по сезону 1014.6 930.4
03 16.06 Ю 4 50 км 3/3 1000 м
[Cu med, cong]
+19.3 -5.7 18 +19 +25 тепло 1012.0 928.8
06 16.06 СВ 3 50 км осадки на расстоянии 3/3 1000 м
[Cb cap]
+19.8 -0.5 26 +20 +25 тепло 1010.1 927.2
09 16.06 С 2 50 км осадки на расстоянии 3/3 1000 м
[Cb cap Ci fib]
+20.1 +0.4 27 +21 +22 комфорт 1008.5 925.8 +20.5
12 16.06 ЮЗ 1 50 км осадки на расстоянии 8/5 1000 м
[Cb cap Ci fib]
+14.4 +4.1 50 +15 +15 тепло 1009.2 925.0
15 16.06 штиль 0 50 км 6/5 1000 м
[Cb cap Ci fib]
+4.3 +1.8 84 +3 +3 холодно 1012.0 924.5
18 16.06 ЮЗ 2 50 км 5/4 1000 м
[Sc Ci fib]
+2.0 +0.9 92 -1 -1 холодно 1012.1 924.0
21 16.06 штиль 0 50 км 8/4 1000 м
[Sc Cc]
+7.6 +3.6 76 +7 +10 прохладно 1010.4 924.1 +1.6
00 17.06 З 1 50 км 9/3 1500 м
[Cu Sc Ac trans Cc]
+17.2 +1.5 35 +18 +23 тепло 1007.1 923.7
03 17.06 ЮВ 6-11
{10}
50 км 10/4 1500 м
[Cu Sc Ac trans Cc]
+16.8 +2.9 39 +16 +17 по сезону 1007.4 924.0
06 17.06 ЮВ 5
{10}
50 км 5/1 1500 м
[Sc diur, vesp Ac lent Ci fib]
+16.8 +2.9 39 +16 +19 прохладно 1007.6 924.2
09 17.06 ЮВ 4 50 км 3/3 1500 м
[Sc Ci fib]
+15.8 +1.5 38 +15 +16 по сезону 1008.2 924.4 +18.0
12 17.06 Ю 2 50 км 3/3 1500 м
[Sc Ac trans]
+10.0 +1.1 54 +9 +9 прохладно 1011.7 926.0
15 17.06 СВ 1 50 км 9/1 1500 м
[Sc Ac As]
+4.2 +0.5 77 +3 +3 холодно 1013.9 926.3
18 17.06 З 2 50 км 9/1 1500 м
[Sc Ac As Ci fib]
+1.9 +0.6 91 -2 -1 холодно 1015.1 926.6
21 17.06 штиль 0 50 км 9/1 1500 м
[Sc Ac trans Cc]
+8.7 +2.9 67 +8 +11 по сезону 1012.8 926.6 +1.5
00 18.06 З 1 50 км 10/1 1500 м
[Cu hum Cc]
+13.8 +1.5 43 +14 +23 по сезону 1010.5 925.9
03 18.06 ЮВ 3 50 км слаб. дождь 10/3 1500 м
[Sc diur, vesp As op]
+15.3 +1.9 40 +15 +16 по сезону 1009.8 925.6
06 18.06 В 3 50 км {дождь} 10/6 1500 м
[Sc Ac As]
+15.4 +4.3 47 +15 +16 прохладно 1009.3 925.4
09 18.06 ЮВ 2 50 км {дождь} 9/9 1500 м
[Sc Ac As]
+14.4 +5.8 56 +14 +14 по сезону 1009.8 925.5 +16.1 0.0

 

Местоположение метеостанции Оймякон (Якутия, Россия): широта 63.25 долгота 143.10 высота над уровнем моря 740 м.

В архиве по умолчанию представлена погода в Оймяконе за последнюю неделю. Архивные данные за месяц целиком и за предыдущие месяцы, начиная с января 2011 года, Вы можете получить, выбрав интересующий диапазон дат из раскрывающегося списка и нажав кнопку "Ввод!".


*Определитесь, кто Вы:
робот инопланетянин человек

Внимание! Время в таблицах - всемирное. Для получения местного времени необходимо прибавить поправку, которая равна 10 ч.

Смотрите также архив погоды в соседних городах и на ближайших метеорологических станциях:

Погода в Агаякане (Якутия, Россия) (71 км)
Погода в Юртах (Якутия, Россия) (110 км)
Погода в Делянкире (Якутия, Россия) (140 км)
Погода в Усть-Нере (Якутия, Россия) (142 км)
Погода в Восточной (Якутия, Россия) (175 км)
Погода в Сусумане (Магаданская область, Россия) (258 км)
Погода в Колымской (Магаданская область, Россия) (278 км)
Погода в Уеге (Хабаровский край, Россия) (282 км)
Погода в Теплом Ключе (Якутия, Россия) (322 км)
Погода в Ягодной (Магаданская область, Россия) (340 км)

Пояснения к столбцам:

Ветер - указаны скорость ветра в м/с - средняя за 10 мин, порывы в срок и между сроками (в фигурных скобках) и направление, откуда дует ветер: С - северный, СВ - северо-восточный, В - восточный, ЮВ - юго-восточный, Ю - южный, ЮЗ - юго-западный, З - западный, СЗ - северо-западный.
Видимость - горизонтальная дальность видимости в метрах или километрах. При видимости от 1 до 10 км при отсутствии осадков обычно наблюдается дымка, при ухудшении видимости до 1 км и менее - туман. В сухую погоду видимость может ухудшаться дымом, пылью или мглою.
Явления - указаны атмосферные явления, наблюдавшиеся в срок или в последний час перед сроком; фигурными скобками обозначены явления, наблюдавшиеся между сроками (за 1-3 часа до срока); квадратными скобками обозначены град или гололедные отложения с указанием их диаметра в мм.
Облачность - указаны через наклонную черту общая и нижняя облачность в баллах и высота нижней границы облаков в метрах; квадратными скобками обозначены формы облаков: Ci - перистые, Cs - перисто-слоистые, Cc - перисто-кучевые, Ac - высококучевые, As - высокослоистые, Sc - слоисто-кучевые, Ns - слоисто-дождевые, Cu - кучевые, Cb - кучево-дождевые. Подробнее классификацию облаков см. в Атласе облаков (PDF).
T - Температура воздуха - температура, измеренная на высоте 2 м над землей.
Td - Температура точки росы - температура, при понижении до которой содержащийся в воздухе водяной пар достигнет насыщения.
f - Относительная влажность воздуха - влажноcть воздуха, измеренная на высоте 2 м над землей.
Te - Эффективная температура - температура, которую ощущает одетый по сезону человек в тени. Характеристика душности погоды. При расчете учитывается влияние влажности воздуха и скорости ветра на теплоощущения человека.
Tes - Эффективная температура на солнце - температура, которую ощущает человек, с поправкой на солнечный нагрев. Характеристика знойности погоды. Зависит от высоты солнца над горизонтом, облачности и скорости ветра. Ночью, в пасмурную погоду, а также при ветре 12 м/с и более поправка равна нулю.
P - Атмосферное давление - приведенное к уровню моря атмосферное давление.
Po - Атмосферное давление - измеренное на уровне метеостанции атмосферное давление.
Tmin - Минимальная температура - минимум температуры воздуха на высоте 2 м над землей.
Tmax - Максимальная температура - максимум температуры воздуха на высоте 2 м над землей.
R - Количество осадков - Количество выпавших осадков за период времени, мм. При наведении курсора мыши на число - период времени, за который выпало указанное количество осадков.
R24 - Количество осадков - Количество выпавших осадков за 24 часа, мм.
S - Снежный покров - Высота снежного покрова, см. При наведении курсора мыши на число - состояние снежного покрова и степень покрытия местности в баллах.